Weather History for KNLC - May, 2013

Change the Weather History Date:

Friday, May 31, 2013

  Actual Average Record
Temperature  
Mean Temperature 70 °F -  
Max Temperature 93 °F 86 °F 104 °F (2001)
Min Temperature 50 °F 57 °F 48 °F (2011)
Cooling Degree Days 6    
Growing Degree Days 20 (Base 50)    
Moisture  
Dew Point 38 °F    
Average Humidity 31    
Maximum Humidity 50    
Minimum Humidity 11    
Precipitation  
Precipitation 0.00 in - - ()
Sea Level Pressure  
Sea Level Pressure 29.92 in    
Wind  
Wind Speed 10 mph (NNW)    
Max Wind Speed 18 mph    
Max Gust Speed 24 mph    
Visibility 10 miles    
Events      
Averages and records for this station are not official NWS values.
T = Trace of Precipitation, MM = Missing Value Source: NWS Daily Summary

Daily Weather History Graph

Daily Weather History Graph

Search for Another Location

Airport or City:

Trip Planner

Search our weather history database for the weather conditions in past years. The results will help you decide how hot, cold, wet, or windy it might be!

Date:

Astronomy

May. 31, 2013 Rise Set
Actual Time 5:43 AM PDT 8:11 PM PDT
Civil Twilight 5:13 AM PDT 8:41 PM PDT
Nautical Twilight 4:37 AM PDT 9:18 PM PDT
Astronomical Twilight 3:56 AM PDT 9:59 PM PDT
Moon 12:57 AM PDT (5/31) 12:55 PM PDT (5/31)
Length of Visible Light 15h 27m
Length of Day
14h 27m
Waning Gibbous, 50% of the Moon is Illuminated
May 31
Waning Gibbous
May 31
Last Quarter
Jun 8
New
Jun 16
First Quarter
Jun 23
Full

Hourly Weather History & Observations

Time (PDT) Temp. Dew Point Humidity Pressure Visibility Wind Dir Wind Speed Gust Speed Precip Events Conditions
12:56 AM 62.1 °F 35.1 °F 37% 29.91 in 10.0 mi NW 11.5 mph - N/A   Clear
1:56 AM 60.1 °F 30.9 °F 33% 29.91 in 10.0 mi NNW 10.4 mph - N/A   Clear
2:56 AM 54.0 °F 32.0 °F 43% 29.91 in 10.0 mi NW 5.8 mph - N/A   Clear
3:56 AM 53.1 °F 32.0 °F 45% 29.91 in 10.0 mi NNW 4.6 mph - N/A   Clear
4:56 AM 50.0 °F 32.0 °F 50% 29.92 in 10.0 mi NNW 9.2 mph - N/A   Clear
5:56 AM 54.0 °F 34.0 °F 47% 29.93 in 10.0 mi NNW 5.8 mph - N/A   Clear
6:56 AM 57.0 °F 37.0 °F 47% 29.95 in 10.0 mi Calm Calm - N/A   Clear
7:08 AM 59.0 °F 37.4 °F 45% 29.95 in 10.0 mi NW 3.5 mph - N/A   Clear
7:56 AM 64.9 °F 39.9 °F 40% 29.97 in 10.0 mi NNW 8.1 mph - N/A   Clear
8:56 AM 73.0 °F 41.0 °F 31% 29.98 in 10.0 mi NNW 12.7 mph - N/A   Clear
9:56 AM 77.0 °F 45.0 °F 32% 29.97 in 10.0 mi NNW 16.1 mph 24.2 mph N/A   Clear
10:56 AM 80.1 °F 45.0 °F 29% 29.97 in 10.0 mi NNW 17.3 mph 23.0 mph N/A   Clear
11:56 AM 82.0 °F 46.0 °F 28% 29.96 in 10.0 mi North 12.7 mph 21.9 mph N/A   Clear
12:56 PM 84.9 °F 46.0 °F 26% 29.94 in 10.0 mi North 11.5 mph 23.0 mph N/A   Clear
1:56 PM 88.0 °F 41.0 °F 19% 29.93 in 10.0 mi NNW 12.7 mph 23.0 mph N/A   Clear
2:56 PM 91.0 °F 37.9 °F 15% 29.91 in 10.0 mi North 17.3 mph 24.2 mph N/A   Clear
3:56 PM 91.0 °F 33.1 °F 13% 29.89 in 10.0 mi NNW 18.4 mph 23.0 mph N/A   Clear
4:56 PM 91.9 °F 34.0 °F 13% 29.88 in 10.0 mi NW 15.0 mph - N/A   Clear
5:56 PM 91.0 °F 30.0 °F 11% 29.86 in 10.0 mi NNW 18.4 mph - N/A   Clear
6:56 PM 88.0 °F 37.0 °F 16% 29.86 in 10.0 mi NNW 15.0 mph - N/A   Clear
7:56 PM 82.0 °F 39.0 °F 22% 29.87 in 10.0 mi North 6.9 mph - N/A   Clear
8:56 PM 73.0 °F 39.9 °F 30% 29.88 in 10.0 mi NNW 8.1 mph - N/A   Clear
9:56 PM 69.1 °F 39.9 °F 35% 29.89 in 10.0 mi NW 9.2 mph - N/A   Clear
10:56 PM 69.1 °F 41.0 °F 36% 29.90 in 10.0 mi WNW 5.8 mph - N/A   Clear
11:56 PM - - N/A% 29.89 in 10.0 mi WNW 5.8 mph - N/A   Clear